Rotterdam, Netherlands

3:20 PM CEST on July 24, 2017 (GMT +0200)
Rotterdam

Weather History for EHRD - October, 2014

Change the Weather History Date:

Wednesday, October 1, 2014

  Actual Average Record
Temperature  
Mean Temperature 61 °F -  
Max Temperature 70 °F 56 °F 78 °F (2011)
Min Temperature 52 °F 45 °F 41 °F (2013)
Degree Days  
Heating Degree Days 4    
Growing Degree Days 11 (Base 50)    
Moisture  
Dew Point 58 °F    
Average Humidity 87    
Maximum Humidity 100    
Minimum Humidity 59    
Precipitation  
Precipitation 0.00 in - - ()
Sea Level Pressure  
Sea Level Pressure 30.27 in    
Wind  
Wind Speed 5 mph ()    
Max Wind Speed 11 mph    
Max Gust Speed -    
Visibility 5.4 miles    
Events      
Averages and records for this station are not official NWS values.
T = Trace of Precipitation, MM = Missing Value Source: Averaged Metar Reports

Daily Weather History Graph

Daily Weather History Graph

Search for Another Location

Airport or City:

Trip Planner

Search our weather history database for the weather conditions in past years. The results will help you decide how hot, cold, wet, or windy it might be!

Date:

Astronomy

Oct. 01, 2014 Rise Set
Actual Time 7:42 AM CEST 7:20 PM CEST
Civil Twilight 7:09 AM CEST 7:53 PM CEST
Nautical Twilight 6:29 AM CEST 8:32 PM CEST
Astronomical Twilight 5:49 AM CEST 9:12 PM CEST
Moon 3:02 PM CEST (10/1) No Moon Set
Length of Visible Light 12h 44m
Length of Day
11h 37m
Waxing Crescent, 46% of the Moon is Illuminated
Oct 1
Waxing Crescent
Oct 1
First Quarter
Oct 8
Full
Oct 15
Last Quarter
Oct 23
New

Hourly Weather History & Observations

Time (CEST) Temp. Dew Point Humidity Pressure Visibility Wind Dir Wind Speed Gust Speed Precip Events Conditions
12:00 AM 57 °F 56 °F 95% 30.27 in 3 mi SSW 4.5 mph - -   Mist
12:25 AM 55.4 °F 55.4 °F 100% 30.24 in 3.1 mi South 3.5 mph - N/A   Mist
12:55 AM 55.4 °F 55.4 °F 100% 30.24 in 3.1 mi South 4.6 mph - N/A   Mist
1:00 AM 55 °F 54 °F 98% 30.27 in 3 mi South 4.5 mph - -   Mist
1:25 AM 57.2 °F 57.2 °F 100% 30.27 in - South 4.6 mph - N/A   Partly Cloudy
1:55 AM 55.4 °F 55.4 °F 100% 30.27 in - South 3.5 mph - N/A   Overcast
2:00 AM 56 °F 56 °F 100% 30.27 in 2 mi South 2.2 mph - -   Mist
2:25 AM 55.4 °F 55.4 °F 100% 30.27 in 1.6 mi South 4.6 mph - N/A   Mostly Cloudy
2:55 AM 55.4 °F 55.4 °F 100% 30.24 in 1.6 mi South 3.5 mph - N/A   Mostly Cloudy
3:00 AM 55 °F 55 °F 99% 30.27 in 1 mi South 4.5 mph - -   Mist
3:25 AM 55.4 °F 55.4 °F 100% 30.24 in 1.3 mi South 4.6 mph - N/A   Mist
3:55 AM 55.4 °F 55.4 °F 100% 30.24 in 1.4 mi South 2.3 mph - N/A   Mist
4:25 AM 60.8 °F 59.0 °F 94% 30.15 in - SW 6.9 mph - N/A   Overcast
4:55 AM 57.2 °F 57.2 °F 100% 30.24 in 1.4 mi SSW 3.5 mph - N/A   Overcast
5:00 AM 57 °F 56 °F 97% 30.27 in 1 mi SSW 4.5 mph - -   Mist
5:25 AM 57.2 °F 57.2 °F 100% 30.24 in 1.7 mi SSW 5.8 mph - N/A   Mostly Cloudy
5:55 AM 55.4 °F 53.6 °F 94% 30.24 in 1.5 mi South 4.6 mph - N/A   Mist
6:00 AM 54 °F 54 °F 99% 30.26 in 2 mi South 4.5 mph - -   Mist
6:25 AM 53.6 °F 53.6 °F 100% 30.24 in - South 5.8 mph - N/A   Mist
6:55 AM 60.8 °F 59.0 °F 94% 30.18 in 2.5 mi SW 9.2 mph - N/A   Mostly Cloudy
7:00 AM 57 °F 56 °F 97% 30.27 in 1 mi SSW 6.7 mph - -   Mist
7:25 AM 59.0 °F 57.2 °F 94% 30.24 in 1.6 mi South 5.8 mph - N/A   Overcast
7:55 AM 57.2 °F 57.2 °F 100% 30.24 in 1.1 mi South 4.6 mph - N/A   Mostly Cloudy
8:00 AM 57 °F 57 °F 99% 30.27 in 1 mi South 4.5 mph - -   Mist
8:25 AM 57.2 °F 57.2 °F 100% 30.24 in 1.2 mi South 5.8 mph - N/A   Mostly Cloudy
8:55 AM 60.8 °F 59.0 °F 94% 30.18 in - SSW 8.1 mph - N/A   Mist
9:00 AM 59 °F 59 °F 98% 30.27 in 2 mi South 6.7 mph - -   Mist
9:55 AM 62.6 °F 59.0 °F 88% 30.21 in 3.1 mi SW 6.9 mph - N/A   Mostly Cloudy
10:25 AM 62.6 °F 59.0 °F 88% 30.27 in 3.1 mi SSW 6.9 mph - N/A   Partly Cloudy
10:55 AM 62.6 °F 59.0 °F 88% 30.27 in - SW 9.2 mph - N/A   Overcast
11:00 AM 63 °F 60 °F 85% 30.30 in 3 mi SW 8.9 mph - -   Mist
11:25 AM 66.2 °F 60.8 °F 83% 30.30 in 3.7 mi SW 6.9 mph - N/A   Scattered Clouds
11:55 AM 64.4 °F 59.0 °F 83% 30.30 in 4.3 mi SW 9.2 mph - N/A   Overcast
12:00 PM 64 °F 60 °F 81% 30.30 in 5 mi WSW 6.7 mph - -   Mist
12:25 PM 66.2 °F 59.0 °F 78% 30.30 in 6.2 mi SW 8.1 mph - N/A   Mostly Cloudy
12:55 PM 68.0 °F 60.8 °F 78% 30.27 in 6.2 mi SW 10.4 mph - N/A   Mostly Cloudy
1:00 PM 66 °F 60 °F 74% 30.30 in 7 mi SW 8.9 mph - -   Partly Cloudy
1:25 PM 69.8 °F 60.8 °F 73% 30.27 in 6.2 mi SW 9.2 mph - N/A   Mostly Cloudy
1:55 PM 68.0 °F 60.8 °F 78% 30.27 in 6.2 mi SSW 10.4 mph - N/A   Scattered Clouds
2:00 PM 69 °F 60 °F 66% 30.29 in 12 mi SW 11.2 mph - -   Partly Cloudy
2:55 PM 69.8 °F 59.0 °F 68% 30.27 in 6.2 mi WSW 9.2 mph - N/A   Overcast
3:00 PM 69 °F 59 °F 64% 30.29 in 19 mi WSW 8.9 mph - -   Overcast
3:55 PM 68.0 °F 59.0 °F 73% 30.27 in 6.2 mi WSW 9.2 mph - N/A   Overcast
4:00 PM 68 °F 58 °F 63% 30.29 in 19 mi WSW 8.9 mph - -   Overcast
4:25 PM 66.2 °F 59.0 °F 78% 30.24 in 6.2 mi SW 10.4 mph - N/A   Overcast
4:55 PM 69.8 °F 57.2 °F 64% 30.27 in 6.2 mi WSW 10.4 mph - N/A   Overcast
5:00 PM 69 °F 58 °F 59% 30.29 in 13 mi WSW 8.9 mph - -   Overcast
5:25 PM 69.8 °F 59.0 °F 68% 30.27 in 6.2 mi WSW 5.8 mph - N/A   Mostly Cloudy
5:55 PM 69.8 °F 59.0 °F 68% 30.27 in 6.2 mi WSW 8.1 mph - N/A   Overcast
6:00 PM 69 °F 59 °F 62% 30.29 in 17 mi West 6.7 mph - -   Overcast
6:25 PM 68.0 °F 59.0 °F 73% 30.27 in 6.2 mi WSW 5.8 mph - N/A   Overcast
6:55 PM 66.2 °F 59.0 °F 78% 30.27 in 6.2 mi West 6.9 mph - N/A   Unknown
7:00 PM 66 °F 58 °F 70% 30.30 in 10 mi West 6.7 mph - -   Overcast
7:25 PM 64.4 °F 59.0 °F 83% 30.30 in 6.2 mi WSW 5.8 mph - N/A   Unknown
7:55 PM 64.4 °F 59.0 °F 83% 30.30 in 6.2 mi WSW 5.8 mph - N/A   Scattered Clouds
8:00 PM 64 °F 58 °F 75% 30.31 in 12 mi WSW 6.7 mph - -   Partly Cloudy
8:25 PM 64.4 °F 59.0 °F 83% 30.30 in 6.2 mi WSW 5.8 mph - N/A   Mostly Cloudy
8:55 PM 64.4 °F 59.0 °F 83% 30.30 in 6.2 mi WSW 4.6 mph - N/A   Overcast
9:00 PM 64 °F 59 °F 80% 30.32 in 12 mi SW 4.5 mph - -   Overcast
9:25 PM 62.6 °F 59.0 °F 88% 30.30 in 6.2 mi SW 4.6 mph - N/A   Partly Cloudy
9:55 PM 55.4 °F 55.4 °F 100% 30.24 in - Variable 1.2 mph - N/A   Partly Cloudy
10:00 PM 61 °F 59 °F 89% 30.33 in 9 mi SW 4.5 mph - -   Scattered Clouds
10:25 PM 55.4 °F 55.4 °F 100% 30.27 in 3.1 mi South 3.5 mph - N/A   Mostly Cloudy
10:55 PM 57.2 °F 57.2 °F 100% 30.27 in 5.0 mi South 3.5 mph - N/A   Mostly Cloudy
11:00 PM 63 °F 60 °F 89% 30.33 in 9 mi SSW 4.5 mph - -   Mostly Cloudy
11:25 PM 57.2 °F 55.4 °F 94% 30.27 in 4.3 mi South 2.3 mph - N/A   Mostly Cloudy
11:55 PM 62.6 °F 60.8 °F 94% 30.33 in 6.2 mi SW 4.6 mph - N/A   Overcast